User: anonymous   Login
Location: Haliburton Scout Reserve
(45.0900°N, 78.3200°W)
Time: 17:08:04
(UTC-04:00)
Language:

AO-73 - Orbit

View from above orbital plane
View from above orbital plane
View from above satellite
View from above satellite

Ground track
Ground track

The orbit data is extracted from the following two-line orbital elements,

1 39444U 13066AE  24146.87968996  .00006747  00000-0  65950-3 0  9991
2 39444  97.7185 106.4247 0047311 213.2845 146.5397 14.91834709567377
Epoch (UTC): 25 May 2024 21:06:45
Eccentricity: 0.0047311
inclination: 97.7185°
perigee height: 559 km
apogee height: 625 km
right ascension of ascending node: 106.4247°
argument of perigee: 213.2845°
revolutions per day: 14.91834709
mean anomaly at epoch: 146.5397°
orbit number at epoch: 56737

The dashed part of the orbit path shows where the satellite is in the earth's shadow,  

DLR